Year,Month,Day,Hour,Minute,Value (Times are PST for temperature in C)
2016,06,21,00,00,18.30
2016,06,21,00,01,18.30
2016,06,21,00,02,18.30
2016,06,21,00,03,18.30
2016,06,21,00,04,18.20
2016,06,21,00,05,18.20
2016,06,21,00,06,18.20
2016,06,21,00,07,18.20
2016,06,21,00,08,18.10
2016,06,21,00,09,18.10
2016,06,21,00,10,18.10
2016,06,21,00,11,18.10
2016,06,21,00,12,18.10
2016,06,21,00,13,18.10
2016,06,21,00,14,18.10
2016,06,21,00,15,18.10
2016,06,21,00,16,18.10
2016,06,21,00,17,18.10
2016,06,21,00,18,18.10
2016,06,21,00,19,18.10
2016,06,21,00,20,18.10
2016,06,21,00,21,18.00
2016,06,21,00,22,17.90
2016,06,21,00,23,17.90
2016,06,21,00,24,17.80
2016,06,21,00,25,17.70
2016,06,21,00,26,17.60
2016,06,21,00,27,17.50
2016,06,21,00,28,17.40
2016,06,21,00,29,17.30
2016,06,21,00,30,17.30
2016,06,21,00,31,17.20
2016,06,21,00,32,17.20
2016,06,21,00,33,17.20
2016,06,21,00,34,17.10
2016,06,21,00,35,17.10
2016,06,21,00,36,17.00
2016,06,21,00,37,17.00
2016,06,21,00,38,16.90
2016,06,21,00,39,16.90
2016,06,21,00,40,16.80
2016,06,21,00,41,16.80
2016,06,21,00,42,16.70
2016,06,21,00,43,16.70
2016,06,21,00,44,16.70
2016,06,21,00,45,16.60
2016,06,21,00,46,16.60
2016,06,21,00,47,16.60
2016,06,21,00,48,16.50
2016,06,21,00,49,16.50
2016,06,21,00,50,16.40
2016,06,21,00,51,16.40
2016,06,21,00,52,16.30
2016,06,21,00,53,16.30
2016,06,21,00,54,16.30
2016,06,21,00,55,16.20
2016,06,21,00,56,16.20
2016,06,21,00,57,16.10
2016,06,21,00,58,16.10
2016,06,21,00,59,16.00
2016,06,21,01,00,16.00
2016,06,21,01,01,15.90
2016,06,21,01,02,15.90
2016,06,21,01,03,15.90
2016,06,21,01,04,15.80
2016,06,21,01,05,15.80
2016,06,21,01,06,15.80
2016,06,21,01,07,15.70
2016,06,21,01,08,15.80
2016,06,21,01,09,15.80
2016,06,21,01,10,15.80
2016,06,21,01,11,15.70
2016,06,21,01,12,15.70
2016,06,21,01,13,15.70
2016,06,21,01,14,15.70
2016,06,21,01,15,15.60
2016,06,21,01,16,15.60
2016,06,21,01,17,15.60
2016,06,21,01,18,15.60
2016,06,21,01,19,15.60
2016,06,21,01,20,15.70
2016,06,21,01,21,15.70
2016,06,21,01,22,15.70
2016,06,21,01,23,15.60
2016,06,21,01,24,15.60
2016,06,21,01,25,15.60
2016,06,21,01,26,15.60
2016,06,21,01,27,15.60
2016,06,21,01,28,15.50
2016,06,21,01,29,15.50
2016,06,21,01,30,15.40
2016,06,21,01,31,15.40
2016,06,21,01,32,15.40
2016,06,21,01,33,15.40
2016,06,21,01,34,15.30
2016,06,21,01,35,15.30
2016,06,21,01,36,15.30
2016,06,21,01,37,15.20
2016,06,21,01,38,15.20
2016,06,21,01,39,15.10
2016,06,21,01,40,15.00
2016,06,21,01,41,15.00
2016,06,21,01,42,15.00
2016,06,21,01,43,15.00
2016,06,21,01,44,15.00
2016,06,21,01,45,15.00
2016,06,21,01,46,15.00
2016,06,21,01,47,15.00
2016,06,21,01,48,14.90
2016,06,21,01,49,14.90
2016,06,21,01,50,14.90
2016,06,21,01,51,14.90
2016,06,21,01,52,14.90
2016,06,21,01,53,14.90
2016,06,21,01,54,14.70
2016,06,21,01,55,14.70
2016,06,21,01,56,14.70
2016,06,21,01,57,14.70
2016,06,21,01,58,14.60
2016,06,21,01,59,14.60
2016,06,21,02,00,14.60
2016,06,21,02,01,14.60
2016,06,21,02,02,14.60
2016,06,21,02,03,14.60
2016,06,21,02,04,14.50
2016,06,21,02,05,14.60
2016,06,21,02,06,14.50
2016,06,21,02,07,14.50
2016,06,21,02,08,14.50
2016,06,21,02,09,14.50
2016,06,21,02,10,14.40
2016,06,21,02,11,14.40
2016,06,21,02,12,14.40
2016,06,21,02,13,14.40
2016,06,21,02,14,14.40
2016,06,21,02,15,14.40
2016,06,21,02,16,14.30
2016,06,21,02,17,14.30
2016,06,21,02,18,14.30
2016,06,21,02,19,14.30
2016,06,21,02,20,14.30
2016,06,21,02,21,14.30
2016,06,21,02,22,14.30
2016,06,21,02,23,14.30
2016,06,21,02,24,14.30
2016,06,21,02,25,14.30
2016,06,21,02,26,14.30
2016,06,21,02,27,14.40
2016,06,21,02,28,14.40
2016,06,21,02,29,14.40
2016,06,21,02,30,14.40
2016,06,21,02,31,14.40
2016,06,21,02,32,14.40
2016,06,21,02,33,14.40
2016,06,21,02,34,14.40
2016,06,21,02,35,14.30
2016,06,21,02,36,14.30
2016,06,21,02,37,14.30
2016,06,21,02,38,14.30
2016,06,21,02,39,14.30
2016,06,21,02,40,14.30
2016,06,21,02,41,14.20
2016,06,21,02,42,14.20
2016,06,21,02,43,14.20
2016,06,21,02,44,14.20
2016,06,21,02,45,14.20
2016,06,21,02,46,14.20
2016,06,21,02,47,14.20
2016,06,21,02,48,14.10
2016,06,21,02,49,14.20
2016,06,21,02,50,14.20
2016,06,21,02,51,14.20
2016,06,21,02,52,14.20
2016,06,21,02,53,14.20
2016,06,21,02,54,14.20
2016,06,21,02,55,14.20
2016,06,21,02,56,14.20
2016,06,21,02,57,14.30
2016,06,21,02,58,14.30
2016,06,21,02,59,14.40
2016,06,21,03,00,14.40
2016,06,21,03,01,14.50
2016,06,21,03,02,14.50
2016,06,21,03,03,14.50
2016,06,21,03,04,14.60
2016,06,21,03,05,14.70
2016,06,21,03,06,14.80
2016,06,21,03,07,15.00
2016,06,21,03,08,15.00
2016,06,21,03,09,15.00
2016,06,21,03,10,15.00
2016,06,21,03,11,15.10
2016,06,21,03,12,15.20
2016,06,21,03,13,15.20
2016,06,21,03,14,15.20
2016,06,21,03,15,15.20
2016,06,21,03,16,15.20
2016,06,21,03,17,15.20
2016,06,21,03,18,15.20
2016,06,21,03,19,15.20
2016,06,21,03,20,15.20
2016,06,21,03,21,15.20
2016,06,21,03,22,15.20
2016,06,21,03,23,15.20
2016,06,21,03,24,15.30
2016,06,21,03,25,15.30
2016,06,21,03,26,15.40
2016,06,21,03,27,15.50
2016,06,21,03,28,15.70
2016,06,21,03,29,15.80
2016,06,21,03,30,15.80
2016,06,21,03,31,15.90
2016,06,21,03,32,16.00
2016,06,21,03,33,16.00
2016,06,21,03,34,16.00
2016,06,21,03,35,16.10
2016,06,21,03,36,16.10
2016,06,21,03,37,16.10
2016,06,21,03,38,16.10
2016,06,21,03,39,16.10
2016,06,21,03,40,16.10
2016,06,21,03,41,16.10
2016,06,21,03,42,16.20
2016,06,21,03,43,16.20
2016,06,21,03,44,16.20
2016,06,21,03,45,16.20
2016,06,21,03,46,16.10
2016,06,21,03,47,16.10
2016,06,21,03,48,16.10
2016,06,21,03,49,16.10
2016,06,21,03,50,16.20
2016,06,21,03,51,16.20
2016,06,21,03,52,16.20
2016,06,21,03,53,16.20
2016,06,21,03,54,16.20
2016,06,21,03,55,16.10
2016,06,21,03,56,16.10
2016,06,21,03,57,16.10
2016,06,21,03,58,16.10
2016,06,21,03,59,16.10
2016,06,21,04,00,16.10
2016,06,21,04,01,16.00
2016,06,21,04,02,16.00
2016,06,21,04,03,16.10
2016,06,21,04,04,16.00
2016,06,21,04,05,16.00
2016,06,21,04,06,16.00
2016,06,21,04,07,16.00
2016,06,21,04,08,16.00
2016,06,21,04,09,16.00
2016,06,21,04,10,16.00
2016,06,21,04,11,16.00
2016,06,21,04,12,16.00
2016,06,21,04,13,16.10
2016,06,21,04,14,16.10
2016,06,21,04,15,16.10
2016,06,21,04,16,16.10
2016,06,21,04,17,16.10
2016,06,21,04,18,16.10
2016,06,21,04,19,16.10
2016,06,21,04,20,16.10
2016,06,21,04,21,16.10
2016,06,21,04,22,16.10
2016,06,21,04,23,16.10
2016,06,21,04,24,16.10
2016,06,21,04,25,16.10
2016,06,21,04,26,16.10
2016,06,21,04,27,16.10
2016,06,21,04,28,16.10
2016,06,21,04,29,16.10
2016,06,21,04,30,16.10
2016,06,21,04,31,16.10
2016,06,21,04,32,16.10
2016,06,21,04,33,16.10
2016,06,21,04,34,16.10
2016,06,21,04,35,16.10
2016,06,21,04,36,16.10
2016,06,21,04,37,16.10
2016,06,21,04,38,16.10
2016,06,21,04,39,16.10
2016,06,21,04,40,16.10
2016,06,21,04,41,16.10
2016,06,21,04,42,16.10
2016,06,21,04,43,16.10
2016,06,21,04,44,16.10
2016,06,21,04,45,16.10
2016,06,21,04,46,16.10
2016,06,21,04,47,16.10
2016,06,21,04,48,16.10
2016,06,21,04,49,16.10
2016,06,21,04,50,16.10
2016,06,21,04,51,16.10
2016,06,21,04,52,16.10
2016,06,21,04,53,16.10
2016,06,21,04,54,16.10
2016,06,21,04,55,16.10
2016,06,21,04,56,16.10
2016,06,21,04,57,16.10
2016,06,21,04,58,16.10
2016,06,21,04,59,16.10
2016,06,21,05,00,16.10
2016,06,21,05,01,16.10
2016,06,21,05,02,16.10
2016,06,21,05,03,16.10
2016,06,21,05,04,16.10
2016,06,21,05,05,16.10
2016,06,21,05,06,16.20
2016,06,21,05,07,16.20
2016,06,21,05,08,16.20
2016,06,21,05,09,16.20
2016,06,21,05,10,16.20
2016,06,21,05,11,16.20
2016,06,21,05,12,16.20
2016,06,21,05,13,16.20
2016,06,21,05,14,16.20
2016,06,21,05,15,16.20
2016,06,21,05,16,16.20
2016,06,21,05,17,16.20
2016,06,21,05,18,16.20
2016,06,21,05,19,16.20
2016,06,21,05,20,16.20
2016,06,21,05,21,16.20
2016,06,21,05,22,16.10
2016,06,21,05,23,16.10
2016,06,21,05,24,16.10
2016,06,21,05,25,16.10
2016,06,21,05,26,16.10
2016,06,21,05,27,16.10
2016,06,21,05,28,16.10
2016,06,21,05,29,16.00
2016,06,21,05,30,16.00
2016,06,21,05,31,16.00
2016,06,21,05,32,16.00
2016,06,21,05,33,16.00
2016,06,21,05,34,16.00
2016,06,21,05,35,15.90
2016,06,21,05,36,15.90
2016,06,21,05,37,15.90
2016,06,21,05,38,15.90
2016,06,21,05,39,15.90
2016,06,21,05,40,15.90
2016,06,21,05,41,15.90
2016,06,21,05,42,15.80
2016,06,21,05,43,15.80
2016,06,21,05,44,15.80
2016,06,21,05,45,15.80
2016,06,21,05,46,15.80
2016,06,21,05,47,15.80
2016,06,21,05,48,15.80
2016,06,21,05,49,15.80
2016,06,21,05,50,15.80
2016,06,21,05,51,15.80
2016,06,21,05,52,15.80
2016,06,21,05,53,15.80
2016,06,21,05,54,15.80
2016,06,21,05,55,15.80
2016,06,21,05,56,15.80
2016,06,21,05,57,15.80
2016,06,21,05,58,15.80
2016,06,21,05,59,15.80
2016,06,21,06,00,15.80
2016,06,21,06,01,15.80
2016,06,21,06,02,15.70
2016,06,21,06,03,15.70
2016,06,21,06,04,15.70
2016,06,21,06,05,15.70
2016,06,21,06,06,15.70
2016,06,21,06,07,15.70
2016,06,21,06,08,15.70
2016,06,21,06,09,15.70
2016,06,21,06,10,15.60
2016,06,21,06,11,15.60
2016,06,21,06,12,15.60
2016,06,21,06,13,15.70
2016,06,21,06,14,15.70
2016,06,21,06,15,15.70
2016,06,21,06,16,15.70
2016,06,21,06,17,15.70
2016,06,21,06,18,15.70
2016,06,21,06,19,15.60
2016,06,21,06,20,15.60
2016,06,21,06,21,15.60
2016,06,21,06,22,15.60
2016,06,21,06,23,15.60
2016,06,21,06,24,15.60
2016,06,21,06,25,15.50
2016,06,21,06,26,15.50
2016,06,21,06,27,15.50
2016,06,21,06,28,15.50
2016,06,21,06,29,15.60
2016,06,21,06,30,15.60
2016,06,21,06,31,15.60
2016,06,21,06,32,15.60
2016,06,21,06,33,15.60
2016,06,21,06,34,15.70
2016,06,21,06,35,15.70
2016,06,21,06,36,15.70
2016,06,21,06,37,15.70
2016,06,21,06,38,15.70
2016,06,21,06,39,15.70
2016,06,21,06,40,15.60
2016,06,21,06,41,15.60
2016,06,21,06,42,15.60
2016,06,21,06,43,15.60
2016,06,21,06,44,15.60
2016,06,21,06,45,15.60
2016,06,21,06,46,15.60
2016,06,21,06,47,15.60
2016,06,21,06,48,15.60
2016,06,21,06,49,15.60
2016,06,21,06,50,15.70
2016,06,21,06,51,15.70
2016,06,21,06,52,15.80
2016,06,21,06,53,15.80
2016,06,21,06,54,15.90
2016,06,21,06,55,15.90
2016,06,21,06,56,16.00
2016,06,21,06,57,16.10
2016,06,21,06,58,16.10
2016,06,21,06,59,16.20
2016,06,21,07,00,16.30
2016,06,21,07,01,16.30
2016,06,21,07,02,16.40
2016,06,21,07,03,16.50
2016,06,21,07,04,16.60
2016,06,21,07,05,16.60
2016,06,21,07,06,16.60
2016,06,21,07,07,16.70
2016,06,21,07,08,16.80
2016,06,21,07,09,16.80
2016,06,21,07,10,16.80
2016,06,21,07,11,16.80
2016,06,21,07,12,16.90
2016,06,21,07,13,17.00
2016,06,21,07,14,17.00
2016,06,21,07,15,17.10
2016,06,21,07,16,17.10
2016,06,21,07,17,17.10
2016,06,21,07,18,17.10
2016,06,21,07,19,17.10
2016,06,21,07,20,17.10
2016,06,21,07,21,17.10
2016,06,21,07,22,17.10
2016,06,21,07,23,17.20
2016,06,21,07,24,17.20
2016,06,21,07,25,17.20
2016,06,21,07,26,17.20
2016,06,21,07,27,17.20
2016,06,21,07,28,17.30
2016,06,21,07,29,17.30
2016,06,21,07,30,17.30
2016,06,21,07,31,17.30
2016,06,21,07,32,17.30
2016,06,21,07,33,17.30
2016,06,21,07,34,17.30
2016,06,21,07,35,17.30
2016,06,21,07,36,17.30
2016,06,21,07,37,17.40
2016,06,21,07,38,17.50
2016,06,21,07,39,17.50
2016,06,21,07,40,17.60
2016,06,21,07,41,17.70
2016,06,21,07,42,17.70
2016,06,21,07,43,17.70
2016,06,21,07,44,17.70
2016,06,21,07,45,17.70
2016,06,21,07,46,17.80
2016,06,21,07,47,17.90
2016,06,21,07,48,18.00
2016,06,21,07,49,18.00
2016,06,21,07,50,18.10
2016,06,21,07,51,18.10
2016,06,21,07,52,18.20
2016,06,21,07,53,18.20
2016,06,21,07,54,18.20
2016,06,21,07,55,18.20
2016,06,21,07,56,18.20
2016,06,21,07,57,18.10
2016,06,21,07,58,18.10
2016,06,21,07,59,18.10
2016,06,21,08,00,18.10
2016,06,21,08,01,18.10
2016,06,21,08,02,18.10
2016,06,21,08,03,18.20
2016,06,21,08,04,18.20
2016,06,21,08,05,18.20
2016,06,21,08,06,18.20
2016,06,21,08,07,18.30
2016,06,21,08,08,18.30
2016,06,21,08,09,18.30
2016,06,21,08,10,18.40
2016,06,21,08,11,18.50
2016,06,21,08,12,18.60
2016,06,21,08,13,18.70
2016,06,21,08,14,18.80
2016,06,21,08,15,18.80
2016,06,21,08,16,18.90
2016,06,21,08,17,19.10
2016,06,21,08,18,19.20
2016,06,21,08,19,19.30
2016,06,21,08,20,19.40
2016,06,21,08,21,19.40
2016,06,21,08,22,19.50
2016,06,21,08,23,19.40
2016,06,21,08,24,19.40
2016,06,21,08,25,19.40
2016,06,21,08,26,19.50
2016,06,21,08,27,19.60
2016,06,21,08,28,19.60
2016,06,21,08,29,19.60
2016,06,21,08,30,19.60
2016,06,21,08,31,19.60
2016,06,21,08,32,19.60
2016,06,21,08,33,19.70
2016,06,21,08,34,19.70
2016,06,21,08,35,19.70
2016,06,21,08,36,19.70
2016,06,21,08,37,19.70
2016,06,21,08,38,19.70
2016,06,21,08,39,19.70
2016,06,21,08,40,19.80
2016,06,21,08,41,19.80
2016,06,21,08,42,19.80
2016,06,21,08,43,19.80
2016,06,21,08,44,19.80
2016,06,21,08,45,19.90
2016,06,21,08,46,20.00
2016,06,21,08,47,20.10
2016,06,21,08,48,20.20
2016,06,21,08,49,20.20
2016,06,21,08,50,20.30
2016,06,21,08,51,20.30
2016,06,21,08,52,20.30
2016,06,21,08,53,20.30
2016,06,21,08,54,20.20
2016,06,21,08,55,20.10
2016,06,21,08,56,20.00
2016,06,21,08,57,20.00
2016,06,21,08,58,19.90
2016,06,21,08,59,19.80
2016,06,21,09,00,19.70
2016,06,21,09,01,19.60
2016,06,21,09,02,19.50
2016,06,21,09,03,19.50
2016,06,21,09,04,19.40
2016,06,21,09,05,19.40
2016,06,21,09,06,19.50
2016,06,21,09,07,19.60
2016,06,21,09,08,19.60
2016,06,21,09,09,19.70
2016,06,21,09,10,19.70
2016,06,21,09,11,19.80
2016,06,21,09,12,19.80
2016,06,21,09,13,19.70
2016,06,21,09,14,19.60
2016,06,21,09,15,19.60
2016,06,21,09,16,19.50
2016,06,21,09,17,19.50
2016,06,21,09,18,19.40
2016,06,21,09,19,19.40
2016,06,21,09,20,19.30
2016,06,21,09,21,19.40
2016,06,21,09,22,19.50
2016,06,21,09,23,19.60
2016,06,21,09,24,19.60
2016,06,21,09,25,19.60
2016,06,21,09,26,19.50
2016,06,21,09,27,19.50
2016,06,21,09,28,19.50
2016,06,21,09,29,19.60
2016,06,21,09,30,19.60
2016,06,21,09,31,19.70
2016,06,21,09,32,19.70
2016,06,21,09,33,19.80
2016,06,21,09,34,19.90
2016,06,21,09,35,20.10
2016,06,21,09,36,20.20
2016,06,21,09,37,20.30
2016,06,21,09,38,20.30
2016,06,21,09,39,20.30
2016,06,21,09,40,20.30
2016,06,21,09,41,20.30
2016,06,21,09,42,20.20
2016,06,21,09,43,20.10
2016,06,21,09,44,20.10
2016,06,21,09,45,20.00
2016,06,21,09,46,19.90
2016,06,21,09,47,19.80
2016,06,21,09,48,19.80
2016,06,21,09,49,19.90
2016,06,21,09,50,19.90
2016,06,21,09,51,20.00
2016,06,21,09,52,20.00
2016,06,21,09,53,20.10
2016,06,21,09,54,20.20
2016,06,21,09,55,20.20
2016,06,21,09,56,20.20
2016,06,21,09,57,20.20
2016,06,21,09,58,20.20
2016,06,21,09,59,20.10
2016,06,21,10,00,20.00
2016,06,21,10,01,20.00
2016,06,21,10,02,19.90
2016,06,21,10,03,19.90
2016,06,21,10,04,19.80
2016,06,21,10,05,19.80
2016,06,21,10,06,19.70
2016,06,21,10,07,19.70
2016,06,21,10,08,19.60
2016,06,21,10,09,19.60
2016,06,21,10,10,19.60
2016,06,21,10,11,19.60
2016,06,21,10,12,19.70
2016,06,21,10,13,19.70
2016,06,21,10,14,19.70
2016,06,21,10,15,19.70
2016,06,21,10,16,19.60
2016,06,21,10,17,19.50
2016,06,21,10,18,19.50
2016,06,21,10,19,19.60
2016,06,21,10,20,19.50
2016,06,21,10,21,19.50
2016,06,21,10,22,19.60
2016,06,21,10,23,19.60
2016,06,21,10,24,19.70
2016,06,21,10,25,19.80
2016,06,21,10,26,19.80
2016,06,21,10,27,19.80
2016,06,21,10,28,19.80
2016,06,21,10,29,19.70
2016,06,21,10,30,19.60
2016,06,21,10,31,19.50
2016,06,21,10,32,19.40
2016,06,21,10,33,19.40
2016,06,21,10,34,19.30
2016,06,21,10,35,19.30
2016,06,21,10,36,19.30
2016,06,21,10,37,19.30
2016,06,21,10,38,19.40
2016,06,21,10,39,19.60
2016,06,21,10,40,19.60
2016,06,21,10,41,19.70
2016,06,21,10,42,19.70
2016,06,21,10,43,19.80
2016,06,21,10,44,19.90
2016,06,21,10,45,20.10
2016,06,21,10,46,20.20
2016,06,21,10,47,20.20
2016,06,21,10,48,20.10
2016,06,21,10,49,20.10
2016,06,21,10,50,20.10
2016,06,21,10,51,20.10
2016,06,21,10,52,20.10
2016,06,21,10,53,20.00
2016,06,21,10,54,19.90
2016,06,21,10,55,19.70
2016,06,21,10,56,19.60
2016,06,21,10,57,19.50
2016,06,21,10,58,19.40
2016,06,21,10,59,19.40
2016,06,21,11,00,19.40
2016,06,21,11,01,19.40
2016,06,21,11,02,19.30
2016,06,21,11,03,19.30
2016,06,21,11,04,19.30
2016,06,21,11,05,19.20
2016,06,21,11,06,19.20
2016,06,21,11,07,19.10
2016,06,21,11,08,19.10
2016,06,21,11,09,19.10
2016,06,21,11,10,19.10
2016,06,21,11,11,19.10
2016,06,21,11,12,19.20
2016,06,21,11,13,19.30
2016,06,21,11,14,19.40
2016,06,21,11,15,19.50
2016,06,21,11,16,19.60
2016,06,21,11,17,19.80
2016,06,21,11,18,19.90
2016,06,21,11,19,20.00
2016,06,21,11,20,20.00
2016,06,21,11,21,20.00
2016,06,21,11,22,20.10
2016,06,21,11,23,20.10
2016,06,21,11,24,20.00
2016,06,21,11,25,19.90
2016,06,21,11,26,19.80
2016,06,21,11,27,19.80
2016,06,21,11,28,19.70
2016,06,21,11,29,19.60
2016,06,21,11,30,19.50
2016,06,21,11,31,19.60
2016,06,21,11,32,19.70
2016,06,21,11,33,19.70
2016,06,21,11,34,19.70
2016,06,21,11,35,19.70
2016,06,21,11,36,19.60
2016,06,21,11,37,19.50
2016,06,21,11,38,19.50
2016,06,21,11,39,19.50
2016,06,21,11,40,19.60
2016,06,21,11,41,19.70
2016,06,21,11,42,19.80
2016,06,21,11,43,19.80
2016,06,21,11,44,19.80
2016,06,21,11,45,19.80
2016,06,21,11,46,19.70
2016,06,21,11,47,19.60
2016,06,21,11,48,19.70
2016,06,21,11,49,19.80
2016,06,21,11,50,19.80
2016,06,21,11,51,19.80
2016,06,21,11,52,19.80
2016,06,21,11,53,19.80
2016,06,21,11,54,19.80
2016,06,21,11,55,19.70
2016,06,21,11,56,19.70
2016,06,21,11,57,19.80
2016,06,21,11,58,19.80
2016,06,21,11,59,19.80
2016,06,21,12,00,19.70
2016,06,21,12,01,19.60
2016,06,21,12,02,19.40
2016,06,21,12,03,19.30
2016,06,21,12,04,19.20
2016,06,21,12,05,19.10
2016,06,21,12,06,19.10
2016,06,21,12,07,19.20
2016,06,21,12,08,19.30
2016,06,21,12,09,19.30
2016,06,21,12,10,19.30
2016,06,21,12,11,19.20
2016,06,21,12,12,19.20
2016,06,21,12,13,19.00
2016,06,21,12,14,19.00
2016,06,21,12,15,19.00
2016,06,21,12,16,19.00
2016,06,21,12,17,18.90
2016,06,21,12,18,18.70
2016,06,21,12,19,18.70
2016,06,21,12,20,18.70
2016,06,21,12,21,18.70
2016,06,21,12,22,18.60
2016,06,21,12,23,18.60
2016,06,21,12,24,18.70
2016,06,21,12,25,18.70
2016,06,21,12,26,18.70
2016,06,21,12,27,18.80
2016,06,21,12,28,18.90
2016,06,21,12,29,18.90
2016,06,21,12,30,18.80
2016,06,21,12,31,18.80
2016,06,21,12,32,18.70
2016,06,21,12,33,18.70
2016,06,21,12,34,18.70
2016,06,21,12,35,18.60
2016,06,21,12,36,18.50
2016,06,21,12,37,18.60
2016,06,21,12,38,18.70
2016,06,21,12,39,18.80
2016,06,21,12,40,19.00
2016,06,21,12,41,19.00
2016,06,21,12,42,19.00
2016,06,21,12,43,19.10
2016,06,21,12,44,19.00
2016,06,21,12,45,18.80
2016,06,21,12,46,18.70
2016,06,21,12,47,18.60
2016,06,21,12,48,18.60
2016,06,21,12,49,18.70
2016,06,21,12,50,18.60
2016,06,21,12,51,18.70
2016,06,21,12,52,18.80
2016,06,21,12,53,18.80
2016,06,21,12,54,18.80
2016,06,21,12,55,18.80
2016,06,21,12,56,18.90
2016,06,21,12,57,19.00
2016,06,21,12,58,19.00
2016,06,21,12,59,19.20
2016,06,21,13,00,19.30
2016,06,21,13,01,19.30
2016,06,21,13,02,19.20
2016,06,21,13,03,19.10
2016,06,21,13,04,19.10
2016,06,21,13,05,19.10
2016,06,21,13,06,19.10
2016,06,21,13,07,19.10
2016,06,21,13,08,19.10
2016,06,21,13,09,19.20
2016,06,21,13,10,19.20
2016,06,21,13,11,19.20
2016,06,21,13,12,19.30
2016,06,21,13,13,19.30
2016,06,21,13,14,19.30
2016,06,21,13,15,19.30
2016,06,21,13,16,19.20
2016,06,21,13,17,19.20
2016,06,21,13,18,19.20
2016,06,21,13,19,19.30
2016,06,21,13,20,19.30
2016,06,21,13,21,19.20
2016,06,21,13,22,19.20
2016,06,21,13,23,19.20
2016,06,21,13,24,19.20
2016,06,21,13,25,19.10
2016,06,21,13,26,19.10
2016,06,21,13,27,19.10
2016,06,21,13,28,19.20
2016,06,21,13,29,19.30
2016,06,21,13,30,19.30
2016,06,21,13,31,19.30
2016,06,21,13,32,19.10
2016,06,21,13,33,19.10
2016,06,21,13,34,19.10
2016,06,21,13,35,19.20
2016,06,21,13,36,19.20
2016,06,21,13,37,19.40
2016,06,21,13,38,19.50
2016,06,21,13,39,19.50
2016,06,21,13,40,19.40
2016,06,21,13,41,19.30
2016,06,21,13,42,19.30
2016,06,21,13,43,19.40
2016,06,21,13,44,19.30
2016,06,21,13,45,19.30
2016,06,21,13,46,19.30
2016,06,21,13,47,19.30
2016,06,21,13,48,19.30
2016,06,21,13,49,19.20
2016,06,21,13,50,19.20
2016,06,21,13,51,19.10
2016,06,21,13,52,19.10
2016,06,21,13,53,19.10
2016,06,21,13,54,19.10
2016,06,21,13,55,19.20
2016,06,21,13,56,19.20
2016,06,21,13,57,19.20
2016,06,21,13,58,19.10
2016,06,21,13,59,19.10
2016,06,21,14,00,19.00
2016,06,21,14,01,18.90
2016,06,21,14,02,18.80
2016,06,21,14,03,18.80
2016,06,21,14,04,18.90
2016,06,21,14,05,19.00
2016,06,21,14,06,19.00
2016,06,21,14,07,19.10
2016,06,21,14,08,19.20
2016,06,21,14,09,19.10
2016,06,21,14,10,19.10
2016,06,21,14,11,19.10
2016,06,21,14,12,19.10
2016,06,21,14,13,19.00
2016,06,21,14,14,19.00
2016,06,21,14,15,18.90
2016,06,21,14,16,18.80
2016,06,21,14,17,18.70
2016,06,21,14,18,18.70
2016,06,21,14,19,18.80
2016,06,21,14,20,18.80
2016,06,21,14,21,18.90
2016,06,21,14,22,19.00
2016,06,21,14,23,19.00
2016,06,21,14,24,19.00
2016,06,21,14,25,19.00
2016,06,21,14,26,18.90
2016,06,21,14,27,18.90
2016,06,21,14,28,19.00
2016,06,21,14,29,18.90
2016,06,21,14,30,19.00
2016,06,21,14,31,19.00
2016,06,21,14,32,19.10
2016,06,21,14,33,19.00
2016,06,21,14,34,19.00
2016,06,21,14,35,19.00
2016,06,21,14,36,19.10
2016,06,21,14,37,19.00
2016,06,21,14,38,19.00
2016,06,21,14,39,18.90
2016,06,21,14,40,18.80
2016,06,21,14,41,18.80
2016,06,21,14,42,18.70
2016,06,21,14,43,18.50
2016,06,21,14,44,18.40
2016,06,21,14,45,18.40
2016,06,21,14,46,18.50
2016,06,21,14,47,18.50
2016,06,21,14,48,18.60
2016,06,21,14,49,18.70
2016,06,21,14,50,18.70
2016,06,21,14,51,18.80
2016,06,21,14,52,18.80
2016,06,21,14,53,18.80
2016,06,21,14,54,18.70
2016,06,21,14,55,18.70
2016,06,21,14,56,18.70
2016,06,21,14,57,18.70
2016,06,21,14,58,18.70
2016,06,21,14,59,18.70
2016,06,21,15,00,18.70
2016,06,21,15,01,18.50
2016,06,21,15,02,18.30
2016,06,21,15,03,18.20
2016,06,21,15,04,18.30
2016,06,21,15,05,18.30
2016,06,21,15,06,18.40
2016,06,21,15,07,18.40
2016,06,21,15,08,18.40
2016,06,21,15,09,18.40
2016,06,21,15,10,18.40
2016,06,21,15,11,18.40
2016,06,21,15,12,18.40
2016,06,21,15,13,18.40
2016,06,21,15,14,18.40
2016,06,21,15,15,18.50
2016,06,21,15,16,18.60
2016,06,21,15,17,18.80
2016,06,21,15,18,18.90
2016,06,21,15,19,18.90
2016,06,21,15,20,19.00
2016,06,21,15,21,19.10
2016,06,21,15,22,19.20
2016,06,21,15,23,19.30
2016,06,21,15,24,19.30
2016,06,21,15,25,19.20
2016,06,21,15,26,19.10
2016,06,21,15,27,18.90
2016,06,21,15,28,18.80
2016,06,21,15,29,18.60
2016,06,21,15,30,18.50
2016,06,21,15,31,18.50
2016,06,21,15,32,18.60
2016,06,21,15,33,18.70
2016,06,21,15,34,18.70
2016,06,21,15,35,18.70
2016,06,21,15,36,18.50
2016,06,21,15,37,18.40
2016,06,21,15,38,18.30
2016,06,21,15,39,18.20
2016,06,21,15,40,18.10
2016,06,21,15,41,18.10
2016,06,21,15,42,18.00
2016,06,21,15,43,18.00
2016,06,21,15,44,17.90
2016,06,21,15,45,17.90
2016,06,21,15,46,18.00
2016,06,21,15,47,18.10
2016,06,21,15,48,18.10
2016,06,21,15,49,18.10
2016,06,21,15,50,18.00
2016,06,21,15,51,18.00
2016,06,21,15,52,18.00
2016,06,21,15,53,17.90
2016,06,21,15,54,18.00
2016,06,21,15,55,18.00
2016,06,21,15,56,18.10
2016,06,21,15,57,18.20
2016,06,21,15,58,18.30
2016,06,21,15,59,18.20
2016,06,21,16,00,18.20
2016,06,21,16,01,18.40
2016,06,21,16,02,18.40
2016,06,21,16,03,18.40
2016,06,21,16,04,18.50
2016,06,21,16,05,18.50
2016,06,21,16,06,18.50
2016,06,21,16,07,18.60
2016,06,21,16,08,18.60
2016,06,21,16,09,18.60
2016,06,21,16,10,18.70
2016,06,21,16,11,18.70
2016,06,21,16,12,18.60
2016,06,21,16,13,18.60
2016,06,21,16,14,18.60
2016,06,21,16,15,18.70
2016,06,21,16,16,18.90
2016,06,21,16,17,18.90
2016,06,21,16,18,18.90
2016,06,21,16,19,18.90
2016,06,21,16,20,18.90
2016,06,21,16,21,18.80
2016,06,21,16,22,18.80
2016,06,21,16,23,18.80
2016,06,21,16,24,18.80
2016,06,21,16,25,18.80
2016,06,21,16,26,18.80
2016,06,21,16,27,18.80
2016,06,21,16,28,18.80
2016,06,21,16,29,18.80
2016,06,21,16,30,18.80
2016,06,21,16,31,18.60
2016,06,21,16,32,18.50
2016,06,21,16,33,18.40
2016,06,21,16,34,18.30
2016,06,21,16,35,18.20
2016,06,21,16,36,18.20
2016,06,21,16,37,18.10
2016,06,21,16,38,18.00
2016,06,21,16,39,17.90
2016,06,21,16,40,17.80
2016,06,21,16,41,17.80
2016,06,21,16,42,17.80
2016,06,21,16,43,17.90
2016,06,21,16,44,18.00
2016,06,21,16,45,17.90
2016,06,21,16,46,18.00
2016,06,21,16,47,18.10
2016,06,21,16,48,18.10
2016,06,21,16,49,18.20
2016,06,21,16,50,18.30
2016,06,21,16,51,18.30
2016,06,21,16,52,18.30
2016,06,21,16,53,18.20
2016,06,21,16,54,18.10
2016,06,21,16,55,18.00
2016,06,21,16,56,17.90
2016,06,21,16,57,17.90
2016,06,21,16,58,17.90
2016,06,21,16,59,17.90
2016,06,21,17,00,17.90
2016,06,21,17,01,17.80
2016,06,21,17,02,17.80
2016,06,21,17,03,17.70
2016,06,21,17,04,17.70
2016,06,21,17,05,17.60
2016,06,21,17,06,17.60
2016,06,21,17,07,17.50
2016,06,21,17,08,17.40
2016,06,21,17,09,17.40
2016,06,21,17,10,17.40
2016,06,21,17,11,17.40
2016,06,21,17,12,17.40
2016,06,21,17,13,17.40
2016,06,21,17,14,17.30
2016,06,21,17,15,17.30
2016,06,21,17,16,17.30
2016,06,21,17,17,17.30
2016,06,21,17,18,17.30
2016,06,21,17,19,17.20